TimeEST,TemperatureF,Dew PointF,Humidity,Sea Level PressureIn,VisibilityMPH,Wind Direction,Wind SpeedMPH,Gust SpeedMPH,PrecipitationIn,Events,Conditions,WindDirDegrees,DateUTC
12:54 AM,17.1,6.1,62,29.97,10.0,WNW,12.7,-,N/A,,Clear,300,2012-12-31 05:54:00
1:54 AM,17.1,6.1,62,29.99,10.0,West,9.2,-,N/A,,Clear,280,2012-12-31 06:54:00
2:54 AM,18.0,7.0,62,30.00,10.0,WNW,13.8,-,N/A,,Clear,290,2012-12-31 07:54:00
3:54 AM,17.1,7.0,65,30.01,10.0,WNW,5.8,-,N/A,,Clear,300,2012-12-31 08:54:00
4:54 AM,16.0,7.0,68,30.00,10.0,SSW,4.6,-,N/A,,Clear,200,2012-12-31 09:54:00
5:54 AM,16.0,7.0,68,30.02,10.0,SW,6.9,-,N/A,,Clear,220,2012-12-31 10:54:00
6:54 AM,19.0,10.9,71,30.01,10.0,SW,6.9,-,N/A,,Overcast,220,2012-12-31 11:54:00
7:43 AM,21.9,15.1,75,29.96,10.0,WSW,13.8,-,N/A,,Overcast,240,2012-12-31 12:43:00
7:54 AM,21.9,15.1,75,30.03,10.0,WSW,13.8,-,N/A,,Overcast,250,2012-12-31 12:54:00
8:54 AM,24.1,17.1,75,30.02,10.0,WSW,10.4,-,N/A,,Overcast,250,2012-12-31 13:54:00
9:54 AM,25.0,18.0,75,30.03,10.0,WSW,16.1,21.9,N/A,,Overcast,250,2012-12-31 14:54:00
10:54 AM,26.1,18.0,71,30.01,10.0,West,16.1,24.2,N/A,,Overcast,260,2012-12-31 15:54:00
11:54 AM,27.0,19.0,72,29.99,10.0,West,11.5,-,N/A,,Overcast,260,2012-12-31 16:54:00
12:54 PM,27.0,19.0,72,29.95,10.0,West,12.7,20.7,N/A,,Overcast,260,2012-12-31 17:54:00
1:47 PM,30.0,19.9,66,29.87,10.0,West,17.3,-,N/A,,Partly Cloudy,270,2012-12-31 18:47:00
1:54 PM,28.9,19.0,67,29.92,10.0,West,20.7,26.5,N/A,,Partly Cloudy,260,2012-12-31 18:54:00
2:54 PM,30.0,19.9,66,29.92,10.0,West,16.1,26.5,N/A,,Clear,270,2012-12-31 19:54:00
3:54 PM,28.9,19.0,67,29.91,10.0,West,10.4,-,N/A,,Clear,260,2012-12-31 20:54:00
4:54 PM,26.1,18.0,71,29.89,10.0,SW,10.4,-,N/A,,Clear,230,2012-12-31 21:54:00
5:54 PM,26.1,19.0,75,29.88,10.0,SW,11.5,-,N/A,,Clear,230,2012-12-31 22:54:00
6:54 PM,28.0,19.0,69,29.86,10.0,SW,12.7,-,N/A,,Clear,230,2012-12-31 23:54:00
7:54 PM,28.9,19.0,67,29.85,10.0,WSW,9.2,-,N/A,,Partly Cloudy,240,2013-01-01 00:54:00
8:54 PM,28.0,19.0,69,29.83,10.0,SW,9.2,-,N/A,,Mostly Cloudy,220,2013-01-01 01:54:00
9:54 PM,30.0,19.0,64,29.81,10.0,SW,9.2,-,N/A,,Mostly Cloudy,230,2013-01-01 02:54:00
10:54 PM,30.0,19.9,66,29.79,10.0,WSW,8.1,-,N/A,,Overcast,240,2013-01-01 03:54:00
11:54 PM,30.9,19.9,64,29.77,10.0,WSW,13.8,-,N/A,,Overcast,240,2013-01-01 04:54:00